Starlink 6217

operational
NORAD ID: 57058 Int'l Des: 2023-088 Owner: SPXS Country: US Constellation: starlink
LEOCIRCULAR

关于 Starlink 6217

正在加载描述...

实时位置

正在加载3D地球...

即将过境

高度历史

Altitude vs Time

uPlot chart will show altitude changes over time

两行轨道根数

1 57058U 23088L 25260.20621435 .00000967 00000-0 86660-4 0 9996
2 57058 43.0052 330.1096 0001226 269.8440 90.2262 15.02532241124279
Epoch: Sep 17, 2025 • Age: 18 hours

当前状态

高度 561.0 km
速度 7.59 km/s
星下点 33.43°N, 118.25°E
发射日期 Jun 22, 2023
运行时间 2.2 years
类型 internet

技术详情

分类 Payload
质量 305.00 kg
干质量 290.00 kg
总质量 305.00 kg
长度 0.20 m
直径 2.80 m
跨度 9.00 m
形状 Box + pan
制造商 SPXS
平台类型 Starlink
阶段状态 In Orbit
所有者/国家 SPXS/US

大型星座

Loading constellations...